This is the latest recevied weather packets stored in our database for station/object KI4NG. If no packets are shown the sender has not sent any weather packets the latest 10 day(s).
| Time | Temp. | Humidity | Pressure | Rain* | Wind** | Luminosity | Snow |
|---|---|---|---|---|---|---|---|
| 1788559362 | 31.67° C | 66% | 1017.1 hPa | 0 mm | - | 275 W/m² | - |
| 1788559058 | 32.22° C | 64% | 1017.1 hPa | 0 mm | - | 136 W/m² | - |
| 1788558753 | 31.67° C | 65% | 1017.1 hPa | 0 mm | - | 318 W/m² | - |
| 1788558448 | 31.67° C | 65% | 1017.3 hPa | 0 mm | - | 158 W/m² | - |
| 1788558144 | 31.67° C | 67% | 1017.3 hPa | 0 mm | - | 154 W/m² | - |
| 1788557841 | 31.11° C | 67% | 1017.6 hPa | 0 mm | - | 155 W/m² | - |
| 1788557539 | 31.11° C | 68% | 1017.3 hPa | 0 mm | - | 135 W/m² | - |
| 1788557238 | 31.67° C | 67% | 1017.5 hPa | 0 mm | - | 136 W/m² | - |
| 1788556934 | 31.67° C | 66% | 1017.4 hPa | 0 mm | - | 117 W/m² | - |
| 1788556634 | 31.67° C | 66% | 1017.5 hPa | 0 mm | - | 128 W/m² | - |
| 1788556329 | 32.22° C | 64% | 1017.3 hPa | 0 mm | - | 117 W/m² | - |
| 1788556023 | 32.22° C | 63% | 1017.3 hPa | 0 mm | - | 151 W/m² | - |
| 1788555718 | 32.78° C | 62% | 1017.2 hPa | 0 mm | - | 91 W/m² | - |
| 1788555414 | 33.33° C | 58% | 1017.3 hPa | 0 mm | - | 88 W/m² | - |
| 1788555110 | 34.44° C | 53% | 1017.3 hPa | 0 mm | - | 139 W/m² | - |
| 1788554806 | 35° C | 51% | 1017.2 hPa | 0 mm | - | 207 W/m² | - |
| 1788554502 | 35.56° C | 51% | 1017.1 hPa | 0 mm | - | 422 W/m² | - |
| 1788554197 | 36.67° C | 46% | 1017.4 hPa | 0 mm | - | 587 W/m² | - |
| 1788553894 | 36.11° C | 47% | 1017.3 hPa | 0 mm | - | 587 W/m² | - |
| 1788553590 | 36.11° C | 48% | 1017.3 hPa | 0 mm | - | 528 W/m² | - |
| 1788553286 | 35.56° C | 49% | 1017.5 hPa | 0 mm | - | 566 W/m² | - |
| 1788552980 | 35.56° C | 51% | 1017.8 hPa | 0 mm | - | 463 W/m² | - |
| 1788552675 | 35.56° C | 48% | 1017.9 hPa | 0 mm | - | 440 W/m² | - |
| 1788552375 | 35° C | 53% | 1017.8 hPa | 0 mm | - | 516 W/m² | - |
| 1788552070 | 35° C | 54% | 1018 hPa | 0 mm | - | 587 W/m² | - |
* Rain latest hour (hover to see other rain measurements)
** Current wind speed in m/s (hover to see current wind gust speed)